Location: Houston
(29.7630°N, 95.3630°W)
Time: 09:46:19
(UTC-05:00)

Amateur Radio Satellites - All Passes

Search period start: 26 September 2017 09:16
Search period end: 27 September 2017 09:16
Location: Houston, 29.7630°N, 95.3630°W

Satellite Date Start Highest point End Downlink Frequencies (MHz)
Time Altitude Azimuth
AAUSAT CUBESAT 2 26 Sep 09:21:26 09:25:32 84° 282° (WNW) 09:29:37 437.432
HO-68 26 Sep 09:31:41 09:38:10 38° 292° (WNW) 09:44:39 435.675
Oscar 11 26 Sep 09:37:49 09:42:01 48° 99° (E) 09:46:10 .
AO-73 26 Sep 09:42:06 09:46:40 85° 99° (E) 09:51:10 145.935
CUTE 1.7 + AOD 2 26 Sep 09:44:16 09:45:25 11° 292° (WNW) 09:46:35 437.475
ZACube-1 26 Sep 09:46:48 09:51:22 74° 284° (WNW) 09:55:52 437.345
FO-29 26 Sep 09:51:39 09:57:31 88° 260° (W) 10:02:52 435.910
DELFI C3 26 Sep 10:22:40 10:26:08 30° 98° (E) 10:29:35 145.870
UNISAT 6 26 Sep 10:33:59 10:38:18 83° 77° (ENE) 10:42:44 437.425
PRISM 26 Sep 10:36:33 10:40:24 40° 74° (ENE) 10:44:13 437.425
Max Valier Satellite 26 Sep 10:48:09 10:51:46 48° 100° (E) 10:55:21 145.860
TIGRISAT 26 Sep 10:56:55 11:01:08 56° 260° (W) 11:05:28 435.000
AIST 2D 26 Sep 11:07:00 11:08:53 14° 71° (ENE) 11:10:45 435.315
Oscar 11 26 Sep 11:16:40 11:17:39 11° 292° (WNW) 11:18:37 .
NO-84 26 Sep 11:28:42 11:32:37 40° 126° (SE) 11:36:18 435.350 FM
NANOSAT C BR1 26 Sep 11:38:52 11:40:47 13° 69° (ENE) 11:42:42 145.865
YUBILEINY 26 Sep 11:41:58 11:49:04 29° 86° (E) 11:56:07 435.215
EO-88 26 Sep 11:42:07 11:45:27 35° 285° (WNW) 11:48:47 145.990 - 145.960
DELFI C3 26 Sep 11:58:40 12:00:33 13° 290° (WNW) 12:02:26 145.870
DUCHIFAT 1 26 Sep 12:04:00 12:07:19 23° 72° (ENE) 12:10:39 145.980
ESTCUBE 1 26 Sep 12:13:54 12:17:54 31° 98° (E) 12:21:50 437.505/2401.250
PRISM 26 Sep 12:14:59 12:15:45 10° 266° (W) 12:16:31 437.425
POLYITAN 1 26 Sep 12:21:40 12:25:44 53° 76° (ENE) 12:29:52 437.675
EO-79 26 Sep 12:25:00 12:29:07 59° 76° (ENE) 12:33:16 145.935-145.965
LO-87 26 Sep 12:27:59 12:31:36 87° 98° (E) 12:35:14 145.935 - 145.965
AIST 2D 26 Sep 12:38:56 12:41:47 23° 263° (W) 12:44:40 435.315
QB50P2 26 Sep 12:39:41 12:43:53 78° 258° (WSW) 12:48:07 145.880/145.840
O/OREOS (USA 219) 26 Sep 12:41:23 12:45:59 71° 72° (ENE) 12:50:33 437.305
SO-50 26 Sep 13:00:07 13:04:08 32° 112° (ESE) 13:08:08 436.795
RS-15 26 Sep 13:00:49 13:09:07 21° 39° (NE) 13:17:04 29.354- 29.394
Oscar 19 26 Sep 13:02:31 13:05:27 15° 67° (ENE) 13:08:23 437.125/150
NO-84 26 Sep 13:07:21 13:10:05 18° 317° (NW) 13:12:42 435.350 FM
NANOSAT C BR1 26 Sep 13:12:14 13:16:06 37° 261° (W) 13:20:00 145.865
Gurwin Techsat 1B 26 Sep 13:13:21 13:15:36 13° 66° (ENE) 13:17:51 435.225
M-CUBED/EXP-1 PRIME 26 Sep 13:28:30 13:32:49 66° 254° (WSW) 13:36:51 437.505
PCSat 26 Sep 13:30:07 13:34:29 25° 107° (ESE) 13:38:52 145.827
YUBILEINY 26 Sep 13:37:06 13:45:22 47° 280° (W) 13:53:40 435.215
DUCHIFAT 1 26 Sep 13:39:48 13:42:51 20° 264° (W) 13:45:55 145.980
SPROUT 26 Sep 13:39:57 13:44:15 78° 103° (ESE) 13:48:32 437.525
ESTCUBE 1 26 Sep 13:51:28 13:54:23 17° 290° (WNW) 13:57:18 437.505/2401.250
BUGSAT 1 26 Sep 14:01:25 14:05:15 45° 260° (W) 14:09:09 437.445
VELOX 1 26 Sep 14:05:00 14:09:23 76° 283° (WNW) 14:13:46 145.980
AO-7 26 Sep 14:36:28 14:42:12 21° 60° (ENE) 14:47:56 .
Oscar 19 26 Sep 14:39:16 14:44:16 49° 259° (W) 14:49:19 437.125/150
SO-50 26 Sep 14:41:22 14:44:35 19° 306° (NW) 14:47:49 436.795
50 SAT 26 Sep 14:46:13 14:49:29 62° 284° (WNW) 14:52:45 437.505
Gurwin Techsat 1B 26 Sep 14:49:43 14:54:57 61° 259° (W) 15:00:12 435.225
UKube-1 26 Sep 14:49:54 14:54:04 48° 100° (E) 14:58:13 .
DX 1 26 Sep 15:03:31 15:07:49 66° 285° (WNW) 15:12:07 434.975-435.025
RS-15 26 Sep 15:11:45 15:23:38 81° 63° (ENE) 15:34:49 29.354- 29.394
PCSat 26 Sep 15:12:52 15:17:40 32° 300° (WNW) 15:22:29 145.827
MOZHAYETS 4 26 Sep 15:24:02 15:25:09 11° 93° (E) 15:26:15
JUGNU 26 Sep 15:35:28 15:36:05 10° 159° (SSE) 15:36:42 437.505
ITAMSAT 1 26 Sep 15:51:19 15:56:11 44° 73° (ENE) 16:01:05 435.822/435.867
ITUPSAT 1 26 Sep 16:21:13 16:25:56 54° 101° (E) 16:30:36 437.325
AO-7 26 Sep 16:25:50 16:34:08 71° 255° (WSW) 16:42:27 .
UKube-1 26 Sep 16:28:35 16:29:36 11° 293° (WNW) 16:30:37 .
BEESAT 26 Sep 16:55:37 17:00:20 59° 285° (WNW) 17:05:01 436.000
MOZHAYETS 4 26 Sep 16:58:01 17:02:29 51° 285° (WNW) 17:06:56
JUGNU 26 Sep 17:20:01 17:24:33 22° 167° (SSE) 17:29:04 437.505
RS-15 26 Sep 17:27:05 17:34:31 20° 260° (W) 17:41:46 29.354- 29.394
ITAMSAT 1 26 Sep 17:32:42 17:35:45 16° 265° (W) 17:38:50 435.822/435.867
CUBESAT XI-V 26 Sep 17:33:03 17:37:38 71° 101° (E) 17:42:13 437.345
Tancredo 1 26 Sep 17:35:55 17:38:26 41° 131° (SE) 17:40:58 437.200
DOVE 4 26 Sep 17:58:03 18:02:32 84° 75° (ENE) 18:06:47 437.250
ITUPSAT 1 26 Sep 18:01:21 18:03:13 12° 294° (WNW) 18:05:04 437.325
CUTE-I 26 Sep 18:04:18 18:08:19 22° 69° (ENE) 18:12:21 437.470
XW-2D 26 Sep 18:04:45 18:07:37 20° 72° (ENE) 18:10:30 145.860 - 145.880
HO-68 26 Sep 18:10:13 18:12:54 12° 60° (ENE) 18:15:37 435.675
XW-2F 26 Sep 18:14:07 18:17:15 24° 73° (ENE) 18:20:23 145.980 - 146.000
XW-2B 26 Sep 18:16:44 18:20:02 28° 74° (ENE) 18:23:21 145.730 - 145.750
NUDT-PHONESAT 26 Sep 18:26:00 18:29:07 25° 73° (ENE) 18:32:15 437.300
nSIGHT-1 26 Sep 18:29:19 18:31:37 19° 127° (SE) 18:33:57 .
KKS-1 26 Sep 18:30:08 18:34:35 80° 283° (WNW) 18:39:02 437.445
XW-2C 26 Sep 18:37:45 18:41:31 58° 77° (ENE) 18:45:19 145.795 - 145.815
STARS 26 Sep 18:44:50 18:49:09 54° 100° (E) 18:53:29 437.465
SRMSAT 26 Sep 18:53:02 18:55:39 13° 161° (SSE) 18:58:16 437.500
CUTE 1.7 + AOD 2 26 Sep 18:53:56 18:56:24 15° 70° (ENE) 18:58:52 437.475
LilacSat-2 26 Sep 18:54:07 18:57:58 74° 258° (WSW) 19:01:51 437.200
KAITUO 1B 26 Sep 18:59:18 19:03:05 84° 80° (E) 19:06:54 145.475/437.950
JUGNU 26 Sep 19:07:53 19:13:05 31° 177° (S) 19:18:17 437.505
BEESAT 3 26 Sep 19:13:47 19:17:44 72° 296° (WNW) 19:21:46 437.485
BEESAT 2 26 Sep 19:29:30 19:33:14 41° 113° (ESE) 19:37:02 435.950
ISS 26 Sep 19:31:48 19:35:02 71° 314° (NW) 19:38:17 437.550
XW-2D 26 Sep 19:38:55 19:41:38 18° 264° (W) 19:44:22 145.860 - 145.880
CUTE-I 26 Sep 19:43:19 19:48:05 34° 261° (W) 19:52:53 437.470
NO-84 26 Sep 19:45:40 19:47:22 14° 41° (NE) 19:49:01 435.350 FM
XW-2F 26 Sep 19:48:59 19:51:17 15° 265° (W) 19:53:35 145.980 - 146.000
XW-2B 26 Sep 19:52:17 19:54:11 13° 265° (W) 19:56:05 145.730 - 145.750
HO-68 26 Sep 19:52:27 19:59:35 88° 77° (ENE) 20:06:47 435.675
SEEDS 26 Sep 19:52:55 19:57:00 48° 76° (ENE) 20:01:05 437.485
CUBEBUG 2 26 Sep 19:57:03 20:01:06 47° 75° (ENE) 20:05:18 437.445
UWE-3 26 Sep 19:57:12 20:00:44 25° 72° (ENE) 20:04:20 435.000/436.395/437.385
NUDT-PHONESAT 26 Sep 20:00:55 20:02:56 14° 265° (W) 20:04:57 437.300
nSIGHT-1 26 Sep 20:05:06 20:07:48 24° 320° (NW) 20:10:30 .
AAUSAT CUBESAT 2 26 Sep 20:05:37 20:09:09 27° 73° (ENE) 20:12:38 437.432
AO-85 26 Sep 20:05:37 20:09:30 65° 298° (WNW) 20:13:23 145.980
STARS 26 Sep 20:24:43 20:24:57 10° 293° (WNW) 20:25:13 437.465
STRAND 1 26 Sep 20:25:23 20:30:23 49° 100° (E) 20:35:20 437.568
Oscar 11 26 Sep 20:27:32 20:30:27 18° 70° (ENE) 20:33:22 .
CUTE 1.7 + AOD 2 26 Sep 20:28:02 20:31:53 33° 262° (W) 20:35:46 437.475
AO-73 26 Sep 20:31:35 20:35:20 29° 73° (ENE) 20:39:11 145.935
ZACube-1 26 Sep 20:36:19 20:40:20 38° 74° (ENE) 20:44:26 437.345
SRMSAT 26 Sep 20:39:31 20:44:17 25° 169° (S) 20:49:01 437.500
XW-2A 26 Sep 20:52:25 20:55:29 31° 262° (W) 20:58:34 145.665 - 145.685
JUGNU 26 Sep 20:56:36 21:01:41 29° 187° (S) 21:06:43 437.505
FO-29 26 Sep 21:07:35 21:10:57 15° 96° (E) 21:14:29 435.910
BEESAT 2 26 Sep 21:09:18 21:11:08 13° 307° (NW) 21:12:58 435.950
NO-84 26 Sep 21:22:24 21:24:40 21° 236° (WSW) 21:26:55 435.350 FM
UWE-3 26 Sep 21:33:59 21:37:05 20° 265° (W) 21:40:16 435.000/436.395/437.385
AAUSAT CUBESAT 2 26 Sep 21:41:50 21:44:31 17° 265° (W) 21:47:13 437.432
HO-68 26 Sep 21:45:50 21:47:54 11° 267° (W) 21:49:58 435.675
Oscar 11 26 Sep 22:02:33 22:06:18 28° 263° (W) 22:10:06 .
STRAND 1 26 Sep 22:06:13 22:09:04 15° 293° (WNW) 22:11:56 437.568
AO-73 26 Sep 22:08:42 22:11:32 17° 266° (W) 22:14:25 145.935
EO-88 26 Sep 22:13:27 22:16:45 32° 74° (ENE) 22:20:03 145.990 - 145.960
ZACube-1 26 Sep 22:14:45 22:16:43 13° 267° (W) 22:18:42 437.345
SRMSAT 26 Sep 22:27:49 22:32:59 32° 179° (S) 22:38:09 437.500
UNISAT 6 26 Sep 22:31:46 22:35:51 29° 97° (E) 22:39:53 437.425
DELFI C3 26 Sep 22:35:45 22:39:36 54° 260° (W) 22:43:28 145.870
JUGNU 26 Sep 22:46:18 22:50:10 18° 196° (SSW) 22:54:01 437.505
FO-29 26 Sep 22:50:22 22:56:04 60° 285° (WNW) 23:02:30 435.910
TIGRISAT 26 Sep 22:54:01 22:58:34 48° 99° (E) 23:03:05 435.000
Max Valier Satellite 26 Sep 22:54:18 22:57:47 39° 261° (W) 23:01:18 145.860
LO-87 26 Sep 22:59:47 23:01:24 13° 71° (ENE) 23:03:00 145.935 - 145.965
ESTCUBE 1 26 Sep 23:08:45 23:11:16 15° 69° (ENE) 23:13:48 437.505/2401.250
SO-50 26 Sep 23:16:29 23:21:06 73° 63° (ENE) 23:25:46 436.795
YUBILEINY 26 Sep 23:54:07 00:02:49 67° 83° (E) 00:11:31 435.215
PRISM 26 Sep 23:58:28 00:02:23 48° 285° (WNW) 00:06:18 437.425
PCSat 27 Sep 00:06:02 00:11:22 57° 64° (ENE) 00:16:39 145.827
UNISAT 6 27 Sep 00:08:48 00:12:17 21° 290° (WNW) 00:15:46 437.425
AIST 2D 27 Sep 00:09:04 00:12:19 35° 98° (E) 00:15:31 435.315
POLYITAN 1 27 Sep 00:13:49 00:16:07 14° 95° (E) 00:18:25 437.675
EO-79 27 Sep 00:16:46 00:19:21 16° 95° (E) 00:21:55 145.935-145.965
SRMSAT 27 Sep 00:16:51 00:21:41 26° 189° (S) 00:26:32 437.500
SPROUT 27 Sep 00:27:35 00:31:06 26° 72° (ENE) 00:34:36 437.525
QB50P2 27 Sep 00:30:49 00:34:27 26° 97° (E) 00:38:03 145.880/145.840
LO-87 27 Sep 00:31:37 00:34:31 24° 263° (W) 00:37:26 145.935 - 145.965
TIGRISAT 27 Sep 00:32:39 00:34:45 13° 292° (WNW) 00:36:50 435.000
ESTCUBE 1 27 Sep 00:43:28 00:47:41 38° 261° (W) 00:51:55 437.505/2401.250
VELOX 1 27 Sep 00:56:03 01:00:11 42° 74° (ENE) 01:04:20 145.980
NANOSAT C BR1 27 Sep 01:01:56 01:06:07 52° 101° (E) 01:10:15 145.865
O/OREOS (USA 219) 27 Sep 01:10:05 01:12:56 17° 100° (E) 01:15:47 437.305
50 SAT 27 Sep 01:11:23 01:13:04 13° 71° (ENE) 01:14:46 437.505
DUCHIFAT 1 27 Sep 01:28:11 01:32:27 81° 282° (WNW) 01:36:41 145.980
Tancredo 1 27 Sep 01:34:15 01:36:29 23° 41° (NE) 01:38:41 437.200
UKube-1 27 Sep 01:39:14 01:42:15 19° 70° (ENE) 01:45:17 .
POLYITAN 1 27 Sep 01:48:03 01:51:55 34° 287° (WNW) 01:55:47 437.675
BUGSAT 1 27 Sep 01:48:43 01:52:40 38° 99° (E) 01:56:37 437.445
EO-79 27 Sep 01:51:19 01:55:05 31° 287° (WNW) 01:58:50 145.935-145.965
PCSat 27 Sep 01:51:38 01:54:10 14° 256° (WSW) 01:56:45 145.827
DX 1 27 Sep 01:52:48 01:56:57 46° 74° (ENE) 02:01:06 434.975-435.025
YUBILEINY 27 Sep 01:52:59 01:58:43 20° 277° (W) 02:04:30 435.215
SPROUT 27 Sep 02:03:58 02:06:54 18° 264° (W) 02:09:50 437.525
QB50P2 27 Sep 02:07:00 02:09:59 19° 289° (WNW) 02:12:57 145.880/145.840
SRMSAT 27 Sep 02:07:11 02:10:19 15° 198° (SSW) 02:13:26 437.500
VELOX 1 27 Sep 02:35:07 02:36:44 12° 266° (W) 02:38:22 145.980
nSIGHT-1 27 Sep 02:36:59 02:39:17 18° 38° (NE) 02:41:35 .
50 SAT 27 Sep 02:42:52 02:45:18 19° 263° (W) 02:47:45 437.505
M-CUBED/EXP-1 PRIME 27 Sep 02:47:28 02:50:14 26° 291° (WNW) 02:53:00 437.505
O/OREOS (USA 219) 27 Sep 02:48:02 02:52:00 31° 293° (WNW) 02:56:02 437.305
Oscar 19 27 Sep 02:56:46 03:01:56 85° 284° (WNW) 03:07:03 437.125/150
Tancredo 1 27 Sep 03:09:33 03:10:39 12° 234° (SW) 03:11:45 437.200
Gurwin Techsat 1B 27 Sep 03:11:57 03:17:18 88° 102° (ESE) 03:22:37 435.225
UKube-1 27 Sep 03:14:26 03:18:02 26° 262° (W) 03:21:40 .
RS-15 27 Sep 03:18:28 03:26:06 19° 100° (E) 03:33:47 29.354- 29.394
ITUPSAT 1 27 Sep 03:22:11 03:26:22 31° 72° (ENE) 03:30:34 437.325
BUGSAT 1 27 Sep 03:25:39 03:27:38 13° 291° (WNW) 03:29:36 437.445
DX 1 27 Sep 03:32:34 03:33:16 10° 266° (W) 03:33:59 434.975-435.025
BEESAT 3 27 Sep 03:39:06 03:39:25 10° 51° (NE) 03:39:44 437.485
ISS 27 Sep 03:40:29 03:43:46 87° 45° (NE) 03:47:03 437.550
MOZHAYETS 4 27 Sep 03:53:13 03:57:48 73° 77° (ENE) 04:02:26
BEESAT 27 Sep 03:55:34 04:00:18 80° 76° (ENE) 04:05:05 436.000
ITAMSAT 1 27 Sep 04:10:35 04:14:55 26° 97° (E) 04:19:13 435.822/435.867
nSIGHT-1 27 Sep 04:12:45 04:15:36 29° 231° (SW) 04:18:27 .
CUBESAT XI-V 27 Sep 04:30:15 04:34:29 34° 73° (ENE) 04:38:42 437.345
AO-7 27 Sep 04:34:19 04:42:28 59° 104° (ESE) 04:50:35 .
AO-85 27 Sep 04:42:08 04:45:35 20° 57° (ENE) 04:49:12 145.980
ITUPSAT 1 27 Sep 05:00:44 05:04:09 19° 264° (W) 05:07:34 437.325
BEESAT 3 27 Sep 05:13:26 05:17:15 51° 246° (WSW) 05:20:59 437.485
KKS-1 27 Sep 05:22:05 05:26:14 42° 74° (ENE) 05:30:24 437.445
RS-15 27 Sep 05:24:48 05:37:02 87° 297° (WNW) 05:49:27 29.354- 29.394
BEESAT 2 27 Sep 05:29:51 05:33:50 59° 62° (ENE) 05:37:44 435.950
STARS 27 Sep 05:36:05 05:39:27 22° 71° (ENE) 05:42:49 437.465
ITAMSAT 1 27 Sep 05:49:51 05:54:14 28° 290° (WNW) 05:58:37 435.822/435.867
DOVE 4 27 Sep 06:02:17 06:06:18 34° 99° (E) 06:10:31 437.250
CUBESAT XI-V 27 Sep 06:08:47 06:11:51 17° 265° (W) 06:14:54 437.345
AO-85 27 Sep 06:21:45 06:26:00 35° 247° (WSW) 06:30:30 145.980
CUTE-I 27 Sep 06:28:05 06:30:52 14° 94° (E) 06:33:39 437.470
AO-7 27 Sep 06:28:15 06:34:37 26° 298° (WNW) 06:41:00 .
LilacSat-2 27 Sep 06:34:12 06:36:48 18° 96° (E) 06:39:23 437.200
KAITUO 1B 27 Sep 06:38:07 06:39:41 12° 94° (E) 06:41:15 145.475/437.950
KKS-1 27 Sep 07:01:12 07:02:54 12° 266° (W) 07:04:36 437.445
STARS 27 Sep 07:12:11 07:15:37 23° 263° (W) 07:19:04 437.465
XW-2D 27 Sep 07:15:58 07:19:44 69° 101° (E) 07:23:28 145.860 - 145.880
XW-2F 27 Sep 07:25:08 07:28:54 84° 101° (E) 07:32:38 145.980 - 146.000
HO-68 27 Sep 07:27:59 07:33:31 24° 97° (E) 07:39:01 435.675
XW-2B 27 Sep 07:28:27 07:32:15 81° 280° (W) 07:35:59 145.730 - 145.750
NUDT-PHONESAT 27 Sep 07:34:57 07:38:40 84° 102° (ESE) 07:42:21 437.300
STRAND 1 27 Sep 07:35:26 07:40:05 37° 72° (ENE) 07:44:44 437.568
DOVE 4 27 Sep 07:41:04 07:43:43 16° 289° (WNW) 07:46:26 437.250
RS-15 27 Sep 07:42:10 07:51:20 24° 318° (NW) 08:00:34 29.354- 29.394
SEEDS 27 Sep 07:44:28 07:46:14 12° 94° (E) 07:48:02 437.485
XW-2C 27 Sep 07:50:17 07:53:48 37° 285° (WNW) 07:57:16 145.795 - 145.815
CUBEBUG 2 27 Sep 07:54:24 07:57:40 18° 95° (E) 08:00:54 437.445
CUTE-I 27 Sep 08:05:56 08:11:05 52° 286° (WNW) 08:16:15 437.470
LilacSat-2 27 Sep 08:08:04 08:10:56 21° 288° (WNW) 08:13:47 437.200
KAITUO 1B 27 Sep 08:10:29 08:13:40 27° 286° (WNW) 08:16:49 145.475/437.950
CUTE 1.7 + AOD 2 27 Sep 08:18:18 08:22:30 65° 101° (E) 08:26:38 437.475
XW-2A 27 Sep 08:20:03 08:22:40 20° 97° (E) 08:25:15 145.665 - 145.685
ZACube-1 27 Sep 08:32:13 08:34:18 13° 93° (E) 08:36:22 437.345
FO-29 27 Sep 08:57:56 09:02:35 27° 71° (ENE) 09:06:58 435.910
